Randolph, MN

4:50 PM CST on February 13, 2016 (GMT -0600)
Stanton

Weather History for KSYN - July, 2013

Change the Weather History Date:

Monday, July 1, 2013

  Actual Average (KLVN) Record (KLVN)
Temperature  
Mean Temperature 68 °F -  
Max Temperature 82 °F 82 °F 94 °F (1970)
Min Temperature 54 °F 59 °F 46 °F (1948)
Cooling Degree Days 3    
Growing Degree Days 18 (Base 50)    
Moisture  
Dew Point 55 °F    
Average Humidity 66    
Maximum Humidity 93    
Minimum Humidity 35    
Precipitation  
Precipitation 0.00 in - - ()
Sea Level Pressure  
Sea Level Pressure 30.15 in    
Wind  
Wind Speed 1 mph (NE)    
Max Wind Speed 12 mph    
Max Gust Speed -    
Visibility 9 miles    
Events Thunderstorm    
Averages and records for this station are not official NWS values.
T = Trace of Precipitation, MM = Missing Value Source: NWS Daily Summary

Daily Weather History Graph

Daily Weather History Graph

Search for Another Location

Airport or City:

Trip Planner

Search our weather history database for the weather conditions in past years. The results will help you decide how hot, cold, wet, or windy it might be!

Date:

Astronomy

Jul. 01, 2013 Rise Set
Actual Time 5:31 AM CDT 9:00 PM CDT
Civil Twilight 4:54 AM CDT 9:36 PM CDT
Nautical Twilight 4:06 AM CDT 10:24 PM CDT
Astronomical Twilight 3:04 AM CDT 11:26 PM CDT
Moon 1:10 AM CDT (7/1) 3:08 PM CDT (7/1)
Length of Visible Light 16h 42m
Length of Day
15h 29m
Waning Crescent, 35% of the Moon is Illuminated
Jul 1
Waning Crescent
Jul 8
New
Jul 15
First Quarter
Jul 22
Full
Jul 29
Last Quarter

Hourly Weather History & Observations

Time (CDT) Temp. Heat Index Dew Point Humidity Pressure Visibility Wind Dir Wind Speed Gust Speed Precip Events Conditions
12:13 AM 60.1 °F - 56.7 °F 88% 30.11 in 10.0 mi Calm Calm - N/A   Clear
12:33 AM 59.5 °F - 56.5 °F 90% 30.11 in 10.0 mi Calm Calm - N/A   Clear
12:53 AM 59.0 °F - 55.6 °F 88% 30.11 in 10.0 mi South 3.5 mph - N/A   Clear
1:13 AM 58.5 °F - 55.6 °F 90% 30.12 in 10.0 mi SSW 3.5 mph - N/A   Clear
1:33 AM 57.9 °F - 55.6 °F 92% 30.12 in 10.0 mi Calm Calm - N/A   Clear
1:53 AM 57.6 °F - 54.3 °F 89% 30.12 in 10.0 mi Calm Calm - N/A   Clear
2:13 AM 58.1 °F - 55.4 °F 91% 30.12 in 10.0 mi Calm Calm - N/A   Clear
2:33 AM 57.2 °F - 54.5 °F 91% 30.12 in 10.0 mi Calm Calm - N/A   Clear
2:53 AM 56.8 °F - 54.5 °F 92% 30.12 in 7.0 mi Calm Calm - N/A   Clear
3:13 AM 56.5 °F - 54.1 °F 92% 30.13 in 7.0 mi Calm Calm - N/A   Clear
3:33 AM 56.3 °F - 54.0 °F 92% 30.12 in 7.0 mi Calm Calm - N/A   Clear
3:53 AM 55.0 °F - 52.7 °F 92% 30.13 in 7.0 mi Calm Calm - N/A   Clear
4:13 AM 55.0 °F - 52.9 °F 92% 30.13 in 7.0 mi Calm Calm - N/A   Clear
4:33 AM 55.0 °F - 52.9 °F 92% 30.13 in 7.0 mi Calm Calm - N/A   Clear
4:53 AM 54.7 °F - 52.7 °F 93% 30.14 in 7.0 mi Calm Calm - N/A   Clear
5:13 AM 54.9 °F - 52.7 °F 92% 30.14 in 7.0 mi Calm Calm - N/A   Clear
5:33 AM 54.5 °F - 52.5 °F 93% 30.15 in 5.0 mi Calm Calm - N/A   Clear
5:53 AM 54.1 °F - 52.2 °F 93% 30.15 in 2.5 mi Calm Calm - N/A   Mist
6:13 AM 54.1 °F - 52.2 °F 93% 30.16 in 5.0 mi Calm Calm - N/A   Clear
6:33 AM 54.9 °F - 52.9 °F 93% 30.17 in 7.0 mi Calm Calm - N/A   Clear
6:53 AM 55.9 °F - 53.8 °F 92% 30.17 in 7.0 mi Calm Calm - N/A   Clear
7:13 AM 57.7 °F - 55.4 °F 92% 30.17 in 7.0 mi Calm Calm - N/A   Clear
7:33 AM 59.2 °F - 56.5 °F 91% 30.17 in 7.0 mi Calm Calm - N/A   Clear
7:52 AM 61.3 °F - 57.9 °F 89% 30.17 in 10.0 mi Calm Calm - N/A   Clear
8:13 AM 63.5 °F - 58.1 °F 83% 30.18 in 10.0 mi Calm Calm - N/A   Clear
8:33 AM 65.5 °F - 58.3 °F 77% 30.18 in 10.0 mi Calm Calm - N/A   Clear
8:53 AM 67.3 °F - 58.5 °F 73% 30.18 in 10.0 mi Calm Calm - N/A   Clear
9:13 AM 69.4 °F - 57.4 °F 65% 30.18 in 10.0 mi Calm Calm - N/A   Clear
9:33 AM 71.1 °F - 57.6 °F 62% 30.18 in 10.0 mi Calm Calm - N/A   Clear
9:53 AM 72.3 °F - 55.4 °F 55% 30.18 in 10.0 mi Calm Calm - N/A   Clear
10:13 AM 73.2 °F - 55.9 °F 55% 30.18 in 10.0 mi Calm Calm - N/A   Clear
10:33 AM 75.0 °F - 55.6 °F 51% 30.18 in 10.0 mi Calm Calm - N/A   Scattered Clouds
10:53 AM 76.3 °F - 53.8 °F 45% 30.18 in 10.0 mi North 3.5 mph - N/A   Scattered Clouds
11:13 AM 77.0 °F - 51.6 °F 41% 30.18 in 10.0 mi Calm Calm - N/A   Clear
11:33 AM 77.9 °F - 51.8 °F 40% 30.18 in 10.0 mi NNE 3.5 mph - N/A   Clear
11:53 AM 78.6 °F - 49.8 °F 36% 30.18 in 10.0 mi Calm Calm - N/A   Clear
12:13 PM 79.2 °F - 52.5 °F 39% 30.18 in 10.0 mi Calm Calm - N/A   Clear
12:33 PM 79.2 °F - 50.7 °F 37% 30.18 in 10.0 mi Calm Calm - N/A   Clear
12:53 PM 79.7 °F - 50.5 °F 36% 30.17 in 7.0 mi East 4.6 mph - N/A   Clear
1:13 PM 80.2 °F - 52.0 °F 37% 30.17 in 10.0 mi North 4.6 mph - N/A   Clear
1:33 PM 80.1 °F - 50.5 °F 36% 30.17 in 10.0 mi North 6.9 mph - N/A   Clear
1:53 PM 80.6 °F - 51.6 °F 36% 30.16 in 10.0 mi NNE 6.9 mph - N/A   Clear
2:13 PM 81.0 °F - 52.0 °F 36% 30.16 in 10.0 mi ENE 4.6 mph - N/A   Clear
2:33 PM 80.6 °F - 51.6 °F 36% 30.16 in 10.0 mi North 4.6 mph - N/A   Clear
2:53 PM 81.5 °F - 51.4 °F 35% 30.15 in 10.0 mi NNE 6.9 mph - N/A   Clear
3:13 PM 81.1 °F - 51.6 °F 36% 30.15 in 10.0 mi ENE 5.8 mph - N/A   Clear
3:33 PM 81.5 °F 80.8 °F 53.4 °F 38% 30.15 in 10.0 mi ESE 4.6 mph - N/A   Clear
3:53 PM 81.3 °F 80.6 °F 53.1 °F 37% 30.14 in 10.0 mi East 4.6 mph - N/A   Clear
4:13 PM 81.3 °F 81.0 °F 55.2 °F 41% 30.14 in 10.0 mi NE 3.5 mph - N/A   Clear
4:33 PM 80.8 °F 80.5 °F 54.5 °F 40% 30.14 in 10.0 mi NE 5.8 mph - N/A   Clear
4:53 PM 81.7 °F 81.0 °F 53.4 °F 38% 30.13 in 10.0 mi NE 4.6 mph - N/A   Clear
5:13 PM 81.7 °F 81.2 °F 54.9 °F 40% 30.14 in 10.0 mi East 4.6 mph - N/A   Clear
5:33 PM 82.0 °F 81.4 °F 54.5 °F 39% 30.13 in 10.0 mi NE 4.6 mph - N/A   Clear
5:53 PM 81.1 °F 80.9 °F 55.2 °F 41% 30.13 in 10.0 mi NE 8.1 mph - N/A   Mostly Cloudy
6:13 PM 81.1 °F 80.7 °F 53.8 °F 39% 30.13 in 10.0 mi NNE 11.5 mph - N/A   Scattered Clouds
6:33 PM 79.5 °F - 54.3 °F 42% 30.13 in 10.0 mi North 8.1 mph - N/A   Clear
6:53 PM 79.9 °F - 53.6 °F 40% 30.13 in 10.0 mi NE 4.6 mph - N/A   Clear
7:13 PM 78.8 °F - 55.9 °F 45% 30.13 in 10.0 mi NNE 5.8 mph - N/A   Clear
7:33 PM 77.0 °F - 55.9 °F 48% 30.13 in 10.0 mi NE 5.8 mph - N/A   Clear
7:53 PM 75.4 °F - 58.6 °F 56% 30.13 in 10.0 mi NNE 4.6 mph - N/A   Clear
8:13 PM 73.8 °F - 61.0 °F 64% 30.13 in 10.0 mi Calm Calm - N/A   Scattered Clouds
8:33 PM 73.9 °F - 60.6 °F 63% 30.13 in 10.0 mi Calm Calm - N/A   Scattered Clouds
8:53 PM 72.7 °F - 60.6 °F 66% 30.13 in 10.0 mi Calm Calm - N/A   Clear
9:13 PM 70.7 °F - 60.4 °F 70% 30.13 in 10.0 mi Calm Calm - N/A   Clear
9:33 PM 69.3 °F - 61.5 °F 76% 30.13 in 10.0 mi Calm Calm - N/A   Clear
9:53 PM 67.6 °F - 60.3 °F 77% 30.14 in 10.0 mi Calm Calm - N/A   Clear
10:13 PM 66.0 °F - 60.3 °F 82% 30.14 in 10.0 mi Calm Calm - N/A   Clear
10:33 PM 65.3 °F - 60.8 °F 85% 30.14 in 7.0 mi Calm Calm - N/A   Clear
10:53 PM 65.3 °F - 60.8 °F 85% 30.14 in 10.0 mi Calm Calm - N/A   Clear
11:14 PM 64.4 °F - 61.0 °F 89% 30.14 in 7.0 mi Calm Calm - N/A   Clear
11:33 PM 63.7 °F - 59.7 °F 87% 30.14 in 10.0 mi Calm Calm - N/A Thunderstorm Clear
11:53 PM 63.7 °F - 59.0 °F 85% 30.14 in 10.0 mi Calm Calm - N/A   Clear